Content
SEND FEEDBACK

Daily
Averages
Monthly
Summary
Bosnia and Herzegovina

STOLAC, BOSNIA AND HERZEGOVINA


Home > Europe > Bosnia and Herzegovina
Elevation: 175 feet     Latitude: 43 17N     Longitude: 017 50E

WEATHER
 
SELECT A DAY
Number of Records: 172,670;   Date Range: 2/20/97 - 7/20/14
 
SHARE

PRINT THIS DATA

[ ← Previous Day ]
WEATHER ALMANAC - FEBRUARY 24, 2014
[ Next Day → ]
[ °C ]   °F
Weather ElementAverageHighLow
Temperature51.8 °F60.8 °F (2:00 pm)42.8 °F (11:00 pm)
Dewpoint37.4 °F41 °F (2:00 am)35.6 °F (10:30 am)
Humidity59.4 %76 % (2:00 am)42 % (11:30 am)
Barometer30.05 in30.09 in (9:00 pm)30.01 in (2:00 pm)
Wind Speed4.5 mph9.2 mph (12:00 pm)
Weather ElementAverage
Visibility6.2 mi
Wind DirectionESE (111.4 °)

Weather ElementTotal
Precipitation---
Heating Degree Days13.2 (Base 65)
Growing Degree Days1.8 (Base 50)
Averaged from 28 records on February 24, 2014
WEATHER CONDITIONS BREAKOUT
WIND DIRECTION BREAKOUT
WEATHER BY HOUR - FEBRUARY 24, 2014
[ °C ]   °F
Local TimeTemperatureDewpointHumidityBarometerVisibilityWind DirectionWind SpeedGust SpeedPrecipitationEventsConditions
1:00 AM48.2 °F39.2 °F71 %30.06 in6.2 miVariable3.5 mphScattered Clouds
2:00 AM48.2 °F41.0 °F76 %30.06 in6.2 miESE (110°)4.6 mphScattered Clouds
3:00 AM48.2 °F39.2 °F71 %30.04 in6.2 miESE (120°)4.6 mphPartly Cloudy
4:00 AM48.2 °F39.2 °F71 %30.04 in6.2 miSE (130°)5.8 mphScattered Clouds
5:00 AM48.2 °F39.2 °F71 %30.04 in6.2 miVariable1.2 mphPartly Cloudy
6:00 AM48.2 °F37.4 °F66 %30.04 in6.2 miESE (110°)3.5 mphPartly Cloudy
6:30 AM48.2 °F37.4 °F66 %30.06 in6.2 miESE (110°)4.6 mphPartly Cloudy
7:00 AM46.4 °F37.4 °F71 %30.06 in6.2 miVariable3.5 mphPartly Cloudy
7:30 AM46.4 °F37.4 °F71 %30.06 in6.2 miVariable3.5 mphPartly Cloudy
8:00 AM48.2 °F37.4 °F66 %30.06 in6.2 miSouth (180°)3.5 mphPartly Cloudy
8:30 AM50.0 °F37.4 °F62 %30.06 in6.2 miESE (110°)3.5 mphPartly Cloudy
9:00 AM51.8 °F39.2 °F62 %30.06 in6.2 miESE (110°)5.8 mphPartly Cloudy
9:30 AM53.6 °F39.2 °F58 %30.06 in6.2 miVariable2.3 mphPartly Cloudy
10:00 AM55.4 °F37.4 °F51 %30.06 in6.2 miVariable3.5 mphPartly Cloudy
10:30 AM57.2 °F35.6 °F44 %30.06 in6.2 miESE (120°)3.5 mphPartly Cloudy
11:00 AM59.0 °F37.4 °F45 %30.04 in6.2 miSE (140°)5.8 mphPartly Cloudy
11:30 AM59.0 °F35.6 °F42 %30.04 in6.2 miVariable2.3 mphPartly Cloudy
12:00 PM59.0 °F37.4 °F45 %30.04 in6.2 miNNW (330°)9.2 mphPartly Cloudy
1:00 PM59.0 °F35.6 °F42 %30.04 in6.2 miNorth (350°)8.1 mphPartly Cloudy
2:00 PM60.8 °F39.2 °F45 %30.01 in6.2 miNorth (350°)8.1 mphPartly Cloudy
3:00 PM59.0 °F35.6 °F42 %30.04 in6.2 miNNW (330°)9.2 mphPartly Cloudy
4:00 PM57.2 °F35.6 °F44 %30.04 in6.2 miNNW (330°)8.1 mphPartly Cloudy
5:00 PM55.4 °F35.6 °F47 %30.04 in6.2 miVariable2.3 mphPartly Cloudy
6:00 PM51.8 °F37.4 °F58 %30.04 in6.2 miENE (60°)3.5 mphPartly Cloudy
8:00 PM48.2 °F37.4 °F66 %30.06 in6.2 miVariable2.3 mphPartly Cloudy
9:00 PM48.2 °F35.6 °F62 %30.09 in6.2 miVariable2.3 mphPartly Cloudy
10:00 PM44.6 °F35.6 °F71 %30.09 inSE (130°)4.6 mphClear
11:00 PM42.8 °F35.6 °F76 %30.09 inVariable2.3 mphClear
Hourly data recorded from LQMO, located miles away from Stolac, Bosnia and Herzegovina







STORIES FROM OUR PARTNERS